Retour au catalogue

IRIDIUM 26

ActifCommunicationsPO
NORAD 24903·PAYLOAD·🇺🇸 United States

Lancé Aug 21, 1997 depuis Vandenberg Space Force Base

Loading…

Prochains Passages (prochaines 24 heures)

TLE

FraisSource: Space-Track

Époque: Sep 14, 2026, 08:42 UTC

1 24903U 97043A   26257.36274668  .00000220  00000-0  66919-4 0  9994
2 24903  86.3901 279.7115 0002363  86.8329 273.3139 14.37521681521980

Suivez IRIDIUM 26 en temps réel avec AllMySat

Download on the App Store